Regional Weather Roundup
Issued by NWS San Angelo, TX

Current Version | Previous Version | Text Only | Print | Product List | Glossary On
Versions: 1 2 3 4 5 6 7 8 9 10 11 12 13 14 15 16 17 18 19 20 21 22 23 24 25 26 27 28 29 30 31 32 33 34 35 36 37 38 39 40 41 42 43 44 45 46 47 48 49 50
000
ASUS44 KSJT 022310
RWRSJT
WEST CENTRAL TEXAS REGIONAL WEATHER ROUNDUP
NATIONAL WEATHER SERVICE SAN ANGELO TX
600 PM CDT TUE JUN 02 2015

NOTE: "FAIR" INDICATES FEW OR NO CLOUDS BELOW 12,000 FEET WITH NO
SIGNIFICANT WEATHER AND/OR OBSTRUCTIONS TO VISIBILITY.

TXZ049-054-064>066-071>073-076>078-098-099-113-114-127-128-139-140-
154-155-168>170-030000
...LOCATIONS ACROSS WEST CENTRAL TEXAS...

CITY           SKY/WX    TMP DP  RH WIND       PRES   REMARKS
SAN ANGELO     SUNNY     87  63  44 S12       29.91F
ABILENE        SUNNY     86  65  49 S16       29.92F
DYESS AFB      SUNNY     87  64  46 S15       29.90F
JUNCTION       SUNNY     88  57  34 S10       29.93F
SWEETWATER     NOT AVBL
BROWNWOOD      SUNNY     86  63  45 S10       29.93S
COLEMAN        CLEAR     87  65  47 S12       29.94S
SONORA         SUNNY     86  59  39 S14G20    29.99R
OZONA          NOT AVBL
BRADY          SUNNY     86  61  42 SE12      29.94S
$$

TEXAS PANHANDLE/OKLAHOMA PANHANDLE

CITY           SKY/WX    TMP DP  RH WIND       PRES   REMARKS
AMARILLO       SUNNY     87  58  37 S16       29.91F
BORGER         SUNNY     90  57  32 S17G26    29.86F
CANADIAN       SUNNY     90  62  38 S20G28    29.84S
DALHART        MOSUNNY   89  50  26 S15       29.89F
DUMAS          CLEAR     88  60  39 S18       29.88F
GUYMON         NOT AVBL
HEREFORD       CLEAR     89  57  33 MISG      29.92F
PAMPA          CLEAR     86  54  33 S23       29.89F
PERRYTON       SUNNY     89  56  33 S20G30    29.84F
$$

SOUTHERN PANHANDLE/SOUTH PLAINS/ROLLING PLAINS

CITY           SKY/WX    TMP DP  RH WIND       PRES   REMARKS
LUBBOCK        MOSUNNY   88  59  37 S18       29.92F
SNYDER         SUNNY     86  63  45 S16G22    29.93S
CHILDRESS      SUNNY     88  62  41 S16G29    29.87F
SEMINOLE       CLEAR     92  53  27 S14G20    29.93S
$$

PERMIAN BASIN

CITY           SKY/WX    TMP DP  RH WIND       PRES   REMARKS
MIDLAND        SUNNY     91  57  31 S22G28    29.91F
ODESSA         SUNNY     90  57  32 S21       29.92F
WINK           SUNNY     96  58  27 SE16G23   29.87F
$$

FAR WEST/SOUTHWEST MOUNTAINS/TRANS PECOS

CITY           SKY/WX    TMP DP  RH WIND       PRES   REMARKS
ALPINE         CLOUDY    76  51  40 S10       30.12R THUNDER
DRYDEN           N/A     89  59  36 SE9       29.92S
EL PASO        MOSUNNY   98  22   6 W8G21     29.92F
FORT STOCKTON  PTSUNNY   86  56  35 S22G29    29.93R
GUADALUPE PASS MOSUNNY   93  31  11 W20G30    30.05F
MARFA          CLOUDY    81  48  32 E22       30.08R
PECOS          MOCLDY    94  52  23 E15       29.85F
$$

DALLAS/FORT WORTH METROPLEX

CITY           SKY/WX    TMP DP  RH WIND       PRES   REMARKS
DFW AIRPORT    PTSUNNY   85  65  51 SE15      29.91F
FTW MEACHAM    MOSUNNY   88  65  46 SE10      29.91F
DAL-EXECUTIVE  MOSUNNY   86  65  49 E9        29.93F
GRAND PRAIRIE  SUNNY     88  64  45 SE8       29.93F
ADDISON        MOSUNNY   86  63  45 SE7       29.94F
MESQUITE       PTCLDY    84  64  51 SE7       29.94F
LANCASTER      PTCLDY    85  63  46 SE8       29.95S
$$

NORTH CENTRAL TEXAS

CITY           SKY/WX    TMP DP  RH WIND       PRES   REMARKS
SHRMAN/DENISON PTCLDY    86  68  53 SE8       29.94F
GAINESVILLE    SUNNY     85  64  48 SE12G17   29.95S
BRIDGEPORT     PTCLDY    87  66  49 SE8G16    29.93F
DENTON         SUNNY     87  64  46 S14       29.91F
WAXAHACHIE     PTCLDY    86  65  48 E5        29.95S
GRANBURY       CLEAR     89  65  44 E13       29.92F
$$

WESTERN NORTH TEXAS

CITY           SKY/WX    TMP DP  RH WIND       PRES   REMARKS
WICHITA FALLS  MOSUNNY   87  66  49 S15       29.88F
VERNON         CLEAR     92  54  27 S18       29.88S
BRECKENRIDGE   PTCLDY    89  62  39 S10       29.91S
COMANCHE       SUNNY     88  61  40 S10       29.94S
$$

CENTRAL AND SOUTH CENTRAL TEXAS

CITY           SKY/WX    TMP DP  RH WIND       PRES   REMARKS
AUSTIN/BERGSTM MOSUNNY   86  65  49 S7        29.92F
WACO           MOSUNNY   88  65  46 SE8       29.92F
HILLSBORO      PTCLDY    87  60  40 SE7       29.93F
TEMPLE         MOSUNNY   88  63  42 S8        29.92F
KILLEEN-GRAY   MOSUNNY   88  64  44 SE10      29.92F
FORT HOOD      SUNNY     85  63  46 SE9       29.92S
GEORGETOWN     MOSUNNY   88  61  40 SE6       29.92F
LAGO VISTA     FAIR      87  60  40 S8        29.96S
SAN MARCOS     SUNNY     88  61  40 S6        29.94S
NEW BRAUNFELS  MOSUNNY   88  64  44 SE8       29.92F
RANDOLPH AFB   SUNNY     84  65  51 SE5       29.93F
SAN ANTONIO    MOSUNNY   86  66  51 SE14      29.94F
STINSON        SUNNY     84  65  52 S9        29.92F
PLEASANTON     NOT AVBL
LA GRANGE      SUNNY     89  69  52 S6        29.91S
GIDDINGS       PTCLDY    87  62  43 CALM      29.96F
$$

EAST TEXAS

CITY           SKY/WX    TMP DP  RH WIND       PRES   REMARKS
PARIS          SUNNY     84  61  45 S7        29.95F
CLARKSVILLE    NOT AVBL
TYLER          PTSUNNY   86  62  44 S7        29.95F
LONGVIEW       MOSUNNY   85  62  46 S3        29.95S
PALESTINE      CLEAR     86  62  44 CALM      29.95F
NACOGDOCHES    MOSUNNY   84  63  48 E5        29.95S
$$

TEXAS HILL COUNTRY AND EDWARDS PLATEAU

CITY           SKY/WX    TMP DP  RH WIND       PRES   REMARKS
LLANO          PTCLDY    88  64  45 S8        29.95F
HORSESHOE BAY  FAIR      89  62  41 S7        29.94S
KERRVILLE      SUNNY     85  60  42 S9        29.96F
FREDERICKSBRG  SUNNY     84  61  45 S10       29.96S
ROCKSPRINGS    CLEAR     84  61  45 SE12G17   30.00F
HONDO          SUNNY     86  62  44 S10       29.95F
UVALDE         CLEAR     85  64  49 SE8       29.94S
DEL RIO        SUNNY     89  65  44 SE14G23   29.89F
$$

SOUTHEAST TEXAS

CITY           SKY/WX    TMP DP  RH WIND       PRES   REMARKS
COLLEGE STN    MOSUNNY   87  63  44 SE5       29.93F
CALDWELL       PTCLDY    88  61  40 CALM      29.95F
CROCKETT       NOT AVBL
BRENHAM        SUNNY     88  65  45 E3        29.93F
HUNTSVILLE     SUNNY     86  59  39 E5        29.94F
CONROE         SUNNY     87  59  38 NE7       29.93F
HOUSTON BUSH   MOSUNNY   88  63  43 NE6       29.91F
HOUSTON HOBBY  MOSUNNY   88  64  44 SE6       29.91S
PERLAND        CLOUDY    89  67  47 S8        29.93F
WHARTON        CLEAR     87  63  44 CALM      29.93S
$$

THE UPPER TEXAS COAST

CITY           SKY/WX    TMP DP  RH WIND       PRES   REMARKS
ORANGE         CLEAR     82  60  46 CALM      29.94S
PORT ARTHUR    SUNNY     87  62  43 N7        29.92S
GALVESTON      MOSUNNY   84  68  58 S10       29.94S
ANGLETON       SUNNY     84  68  58 S9        29.92F
BAY CITY       PTCLDY    84  69  59 S6        29.93S
$$

TEXAS COASTAL BEND, RIO GRANDE PLAINS DEEP SOUTH TEXAS

CITY           SKY/WX    TMP DP  RH WIND       PRES   REMARKS
VICTORIA       SUNNY     85  67  54 SW7       29.93F
BEEVILLE       FAIR      86  66  50 SE9       29.93F
ROCKPORT       SUNNY     85  67  54 SE12      29.93F
PORT ARANSAS   CLEAR     83  71  65 SE10      29.93F
PORT LAVACA    CLEAR     84  66  54 S8        29.94S
CORPUS CHRISTI MOSUNNY   86  69  56 SE8       29.92F
KINGSVILLE NAS MOSUNNY   87  72  60 E10       29.92F
COTULLA        SUNNY     88  64  44 S8        29.91F
LAREDO         MOSUNNY   91  65  42 SE12      29.92F
BROWNSVILLE    SUNNY     86  71  60 SE9G20    29.91F
PORT ISABEL    SUNNY     85  70  60 E12       29.91F
HEBBRONVILLE     N/A     89  63  42 SE7       29.93F
MCALLEN        SUNNY     91  70  49 SE10      29.91F
WESLACO        CLOUDY    87  69  54 E7        29.90F
FALFURRIAS     MOCLDY    88  71  58 E9        29.91S
EDINBURG       MOCLDY    90  69  50 SE10      29.90F
$$


USA.gov is the U.S. government's official web portal to all federal, state and local government web resources and services.